Spokane, WA

10:05 PM PST on January 17, 2017 (GMT -0800)
Felts

Weather History for KSFF - March, 2013

Change the Weather History Date:

Wednesday, March 20, 2013

  Actual Average Record
Temperature  
Mean Temperature 46 °F 42 °F  
Max Temperature 56 °F 52 °F 72 °F (1999)
Min Temperature 36 °F 32 °F 21 °F (2002)
Degree Days  
Heating Degree Days 19 23  
Month to date heating degree days 443 512  
Since 1 July heating degree days 4551 5083  
Cooling Degree Days 0 0  
Month to date cooling degree days 0 0  
Year to date cooling degree days 0 0  
Moisture  
Dew Point 37 °F    
Average Humidity 66    
Maximum Humidity 83    
Minimum Humidity 49    
Precipitation  
Precipitation 0.63 in 0.06 in 0.63 in (2013)
Month to date precipitation 1.00 0.92  
Year to date precipitation 3.23 4.25  
Sea Level Pressure  
Sea Level Pressure 29.62 in    
Wind  
Wind Speed 12 mph (SSW)    
Max Wind Speed 38 mph    
Max Gust Speed 49 mph    
Visibility 8 miles    
Events Rain , Thunderstorm    
T = Trace of Precipitation, MM = Missing Value Source: NWS Daily Summary

Daily Weather History Graph

Daily Weather History Graph

Search for Another Location

Airport or City:

Trip Planner

Search our weather history database for the weather conditions in past years. The results will help you decide how hot, cold, wet, or windy it might be!

Date:

Astronomy

Mar. 20, 2013 Rise Set
Actual Time 6:51 AM PDT 7:02 PM PDT
Civil Twilight 6:20 AM PDT 7:33 PM PDT
Nautical Twilight 5:44 AM PDT 8:09 PM PDT
Astronomical Twilight 5:07 AM PDT 8:47 PM PDT
Moon 12:19 PM PDT (3/20) 2:57 AM PDT (3/20)
Length of Visible Light 13h 12m
Length of Day
12h 11m
First Quarter, 60% of the Moon is Illuminated
Mar 20
First Quarter
Mar 27
Full
Apr 2
Last Quarter
Apr 10
New
Apr 18
First Quarter

Hourly Weather History & Observations

Time (PDT) Temp. Windchill Dew Point Humidity Pressure Visibility Wind Dir Wind Speed Gust Speed Precip Events Conditions
12:53 AM 43.0 °F 38.8 °F 32.0 °F 65% 29.81 in 9.0 mi East 6.9 mph - 0.01 in Rain Light Rain
1:53 AM 41.0 °F 37.1 °F 37.0 °F 86% 29.77 in 10.0 mi NE 5.8 mph - 0.03 in   Overcast
2:53 AM 43.0 °F 39.5 °F 36.0 °F 76% 29.75 in 10.0 mi East 5.8 mph - N/A   Overcast
3:53 AM 43.0 °F 38.8 °F 36.0 °F 76% 29.73 in 10.0 mi ESE 6.9 mph - 0.03 in Rain Light Rain
4:23 AM 44.6 °F 41.4 °F 37.4 °F 76% 29.70 in 8.0 mi ESE 5.8 mph - 0.03 in Rain Light Rain
4:37 AM 42.8 °F 38.6 °F 37.4 °F 81% 29.69 in 9.0 mi ENE 6.9 mph - 0.04 in Rain Light Rain
4:53 AM 43.0 °F 40.3 °F 37.9 °F 82% 29.70 in 10.0 mi ENE 4.6 mph - 0.05 in Rain Light Rain
5:49 AM 42.8 °F 41.1 °F 37.4 °F 81% 29.66 in 9.0 mi Variable 3.5 mph - 0.02 in Rain Light Rain
5:53 AM 43.0 °F 40.3 °F 37.0 °F 80% 29.67 in 8.0 mi NE 4.6 mph - 0.02 in Rain Light Rain
6:53 AM 44.1 °F 41.5 °F 37.9 °F 79% 29.65 in 10.0 mi NE 4.6 mph - 0.00 in   Overcast
7:53 AM 45.0 °F 43.5 °F 39.0 °F 80% 29.63 in 10.0 mi Variable 3.5 mph - 0.04 in Rain Light Rain
8:53 AM 45.0 °F 41.2 °F 39.9 °F 82% 29.60 in 10.0 mi ENE 6.9 mph - 0.02 in Rain Light Rain
9:53 AM 46.9 °F - 41.0 °F 80% 29.59 in 9.0 mi Variable 3.5 mph - 0.01 in Rain Light Rain
10:53 AM 51.1 °F - 42.1 °F 71% 29.56 in 9.0 mi South 12.7 mph 21.9 mph 0.02 in Rain Light Rain
11:53 AM 53.1 °F - 43.0 °F 69% 29.53 in 10.0 mi SSE 10.4 mph - 0.02 in Rain Light Rain
12:53 PM 53.1 °F - 44.1 °F 71% 29.50 in 6.0 mi SSW 11.5 mph - 0.00 in Rain Light Rain
1:12 PM 50.0 °F - 42.8 °F 76% 29.52 in 2.5 mi WSW 27.6 mph 38.0 mph 0.06 in Rain , Thunderstorm Rain
1:19 PM 46.4 °F 38.1 °F 42.8 °F 87% 29.52 in 0.8 mi SW 24.2 mph 38.0 mph 0.14 in Rain , Thunderstorm Heavy Thunderstorms and Rain
1:27 PM 46.4 °F 40.1 °F 41.0 °F 81% 29.51 in 5.0 mi SW 15.0 mph 27.6 mph 0.16 in Rain , Thunderstorm Light Thunderstorms and Rain
1:42 PM 48.2 °F - 42.8 °F 82% 29.50 in 5.0 mi SW 9.2 mph - 0.16 in Rain Light Rain
1:53 PM 50.0 °F - 43.0 °F 77% 29.51 in 5.0 mi SW 8.1 mph - 0.16 in   Haze
2:53 PM 50.0 °F - 39.0 °F 66% 29.52 in 10.0 mi SW 19.6 mph 29.9 mph 0.01 in   Mostly Cloudy
3:11 PM 50.0 °F - 39.2 °F 66% 29.54 in 10.0 mi WSW 23.0 mph 28.8 mph N/A   Mostly Cloudy
3:53 PM 50.0 °F - 39.9 °F 68% 29.55 in 10.0 mi SSW 19.6 mph 26.5 mph N/A   Mostly Cloudy
4:38 PM 46.4 °F 41.5 °F 39.2 °F 76% 29.57 in 1.8 mi West 10.4 mph 28.8 mph 0.09 in Rain Heavy Rain
4:48 PM 42.8 °F 32.5 °F 33.8 °F 70% 29.56 in 1.8 mi SW 28.8 mph 40.3 mph 0.13 in Rain Heavy Rain
4:53 PM 44.1 °F 33.0 °F 33.1 °F 65% 29.60 in 1.2 mi SW 36.8 mph 49.5 mph 0.17 in Rain , Thunderstorm Heavy Rain
5:04 PM 44.6 °F 36.6 °F 35.6 °F 71% 29.57 in 3.0 mi SSW 19.6 mph 35.7 mph 0.04 in Rain , Thunderstorm Light Rain
5:13 PM 46.4 °F 41.1 °F 37.4 °F 71% 29.56 in 7.0 mi SW 11.5 mph - 0.04 in   Overcast
5:53 PM 46.9 °F - 34.0 °F 61% 29.58 in 10.0 mi West 6.9 mph - 0.04 in Rain Light Rain
6:53 PM 45.0 °F 37.1 °F 32.0 °F 60% 29.62 in 10.0 mi SW 19.6 mph 26.5 mph 0.00 in   Scattered Clouds
7:53 PM 45.0 °F 38.5 °F 28.0 °F 52% 29.66 in 10.0 mi WSW 13.8 mph 27.6 mph N/A   Clear
8:53 PM 44.1 °F 38.6 °F 27.0 °F 51% 29.70 in 10.0 mi WSW 10.4 mph 21.9 mph N/A   Scattered Clouds
9:53 PM 41.0 °F 33.1 °F 28.0 °F 60% 29.73 in 10.0 mi SW 15.0 mph 26.5 mph N/A   Clear
10:53 PM 39.2 °F 30.2 °F 28.4 °F 65% 29.74 in 10.0 mi SW 17.3 mph 27.6 mph N/A   Overcast
11:53 PM 37.9 °F 28.5 °F 28.0 °F 68% 29.79 in 10.0 mi SW 17.3 mph 31.1 mph N/A   Overcast